Wind_Speed
24 24 23 21 20 21 22 21 19 18 18 19 19 21 23 22 22 21 22 22 20 23 25 24 20 13 11 13 19 22 23 24 27 30 30 29 29 27 25 23 21 21 20 17 15 17 17 18 21 23 24 25 26 25 24 24 22 21 21 20 19 16 13 11 11 12 12 12 12 11 11 10 9 9 10 11 11 12 11 8 7 7 7 7 5 3
24 22 19 19 20 22 22 21 20 19 20 20 20 22 22 20 18 19 23 22 18 23 24 21 19 17 15 12 15 21 24 25 27 29 31 31 31 28 23 21 22 24 23 19 15 14 16 21 25 25 24 24 24 23 24 24 22 21 20 20 17 15 14 13 12 12 12 13 13 13 14 12 10 10 11 12 12 12 10 7 6 6 5 4 3 2
21 18 17 19 22 22 21 20 21 21 21 21 21 23 20 18 19 20 23 22 20 22 20 17 15 13 13 11 11 20 25 26 28 29 29 30 28 25 23 23 25 27 26 26 23 20 21 25 25 24 24 23 22 21 22 23 22 20 19 17 14 13 13 12 12 13 13 13 13 14 15 13 11 10 10 10 10 10 9 7 6 5 4 3 2 2
18 18 19 21 21 21 20 20 20 20 21 21 22 21 16 17 21 21 20 20 21 20 16 15 14 11 13 13 12 19 25 28 30 29 29 30 26 24 26 27 29 30 30 30 27 24 23 24 24 23 23 23 21 20 20 20 20 20 19 17 14 13 12 11 12 12 13 13 14 15 15 13 11 8 7 7 7 7 7 6 5 4 3 3 2 1
19 20 20 20 21 20 20 20 19 18 19 21 20 17 15 19 23 20 17 18 18 17 15 16 16 16 18 17 15 18 25 31 31 29 30 28 23 23 27 30 31 32 32 31 27 22 22 22 23 22 23 23 21 20 20 19 20 20 20 17 13 12 11 11 11 12 12 13 13 14 14 13 10 8 6 6 5 6 6 5 4 3 2 2 1 1
20 20 19 19 20 20 20 19 18 17 18 19 16 13 18 23 21 20 19 18 15 13 14 16 17 20 21 20 18 18 23 30 31 30 28 24 21 22 25 29 31 32 32 30 24 22 23 24 23 22 23 24 22 21 19 19 20 20 17 13 11 9 8 9 11 11 11 12 14 15 14 12 10 8 7 6 5 6 7 6 4 2 1 1 1 2
21 20 19 18 19 20 21 19 19 18 17 16 12 12 21 25 22 22 23 22 18 16 16 16 17 21 22 22 20 18 20 26 29 29 28 26 25 25 27 29 31 32 32 29 26 26 27 26 24 23 24 24 22 20 17 16 17 17 15 11 9 8 7 7 8 9 9 9 12 13 12 9 8 8 7 6 5 7 9 8 5 3 0 1 2 3
19 20 19 18 18 18 20 20 20 18 16 15 13 14 23 27 23 23 24 24 21 19 21 21 21 23 23 22 22 21 22 25 27 29 30 30 30 29 30 32 32 32 31 30 30 30 29 27 24 23 24 23 20 16 14 15 15 16 15 10 6 5 6 7 6 7 8 8 9 9 9 8 9 9 8 7 6 7 9 10 8 5 2 2 4 4
19 19 18 19 19 19 21 20 17 16 15 15 16 20 27 30 26 23 24 25 23 23 24 24 26 27 26 25 25 25 28 29 29 30 30 31 32 33 33 33 32 31 31 31 32 32 30 27 23 22 22 20 17 14 14 15 16 16 13 10 6 3 4 6 5 6 9 10 9 9 9 9 10 10 9 7 6 7 10 11 11 9 6 5 6 6
20 21 21 21 21 20 20 16 13 14 14 14 19 23 28 33 29 25 24 22 23 25 25 25 26 27 26 27 28 28 29 30 29 30 31 32 33 34 34 32 31 31 31 31 30 29 28 25 21 21 20 18 16 15 14 15 14 14 11 9 8 6 5 5 3 5 8 10 10 9 9 9 10 10 8 7 6 6 9 12 12 12 11 10 9 8
21 22 23 23 21 18 16 15 13 13 12 14 20 22 27 33 32 28 25 22 23 25 26 26 24 23 22 24 26 27 28 28 28 28 30 31 32 34 33 32 32 32 30 28 26 26 26 22 18 19 19 17 16 14 14 14 13 12 9 7 7 8 9 8 5 4 5 8 9 9 9 9 10 10 9 8 7 7 9 12 13 15 15 14 12 9
21 22 23 22 21 19 16 15 15 13 12 16 20 21 25 32 33 31 28 27 27 27 26 25 22 20 19 20 22 25 26 27 28 28 28 29 30 31 31 31 31 29 24 22 22 23 23 19 17 17 18 16 15 14 14 13 12 10 8 7 8 8 10 11 9 7 6 7 9 9 10 11 12 12 12 10 9 9 10 12 14 16 16 15 13 10
22 22 21 20 19 17 15 14 14 13 14 18 21 22 24 30 34 34 33 32 32 30 29 26 23 21 19 17 19 22 25 25 27 29 29 29 29 28 27 27 25 22 19 18 18 20 20 18 16 16 16 15 15 14 15 14 13 11 10 9 9 9 10 10 9 8 7 8 9 10 11 12 13 14 14 13 12 12 12 12 14 15 15 14 13 11
20 21 21 20 19 16 12 12 14 14 15 19 21 23 24 26 31 35 36 37 36 34 31 28 26 26 24 21 19 21 25 26 27 29 28 26 25 23 23 21 18 15 14 14 15 16 16 14 14 14 15 15 15 15 16 17 15 13 12 11 10 10 10 10 9 8 8 9 9 10 12 12 13 15 15 15 14 14 13 13 13 13 14 14 13 14
20 21 21 20 18 15 11 10 12 13 16 19 21 23 24 24 26 29 32 36 37 36 34 31 30 30 28 24 21 21 25 26 27 28 26 24 22 20 20 19 17 15 12 11 13 14 12 12 12 13 14 14 15 17 19 19 18 16 14 12 12 11 11 11 10 10 10 10 10 11 12 13 14 15 14 14 15 14 13 13 12 12 13 14 16 17
21 21 20 18 17 16 14 11 11 13 16 19 21 21 21 21 23 24 26 29 31 32 32 31 31 32 30 27 23 21 23 25 26 26 24 22 20 20 21 19 16 13 11 12 14 14 13 12 12 13 14 15 16 20 23 23 20 18 16 14 13 13 13 13 12 12 11 11 11 12 13 13 13 12 12 13 14 14 14 13 13 13 15 16 18 18
23 21 20 19 18 17 16 13 12 13 16 18 21 21 19 18 20 21 24 26 27 27 27 27 29 29 28 26 23 21 20 22 22 22 22 22 20 20 21 20 16 13 12 13 14 15 14 14 14 15 16 16 16 18 23 24 23 20 18 16 15 14 14 15 14 13 13 13 13 13 14 14 13 12 12 13 14 14 14 15 15 15 16 17 18 18
25 23 22 21 20 19 17 16 15 15 17 19 21 23 21 20 20 21 22 25 26 25 25 26 27 27 27 25 23 21 20 20 19 20 21 21 21 20 19 17 16 16 16 15 15 16 17 17 17 17 18 17 16 16 18 20 22 22 20 18 17 16 17 17 16 15 16 16 16 16 16 16 15 14 13 13 13 14 15 17 17 17 18 19 19 19
26 25 24 23 22 21 21 21 19 19 20 21 23 26 26 23 22 23 24 25 26 25 24 24 25 27 27 25 23 22 21 21 20 20 22 22 21 20 19 18 18 19 19 19 19 19 19 19 19 19 19 19 18 17 16 15 18 20 21 21 21 20 19 19 18 18 19 19 19 19 18 18 18 16 15 15 14 15 16 18 20 21 22 22 22 21
28 27 25 24 23 22 23 24 24 24 24 24 25 27 27 25 23 23 24 25 26 25 24 24 25 27 27 25 24 23 22 22 22 23 24 25 26 24 22 22 21 20 20 20 20 19 19 19 19 20 22 23 21 19 18 16 17 20 23 24 24 23 22 22 22 21 21 22 20 19 19 20 20 19 17 17 17 17 18 20 21 22 24 24 24 23
29 29 26 24 24 24 25 27 27 26 26 27 28 28 27 27 26 25 25 25 26 27 26 25 26 26 26 25 25 24 24 24 25 26 25 25 26 26 25 24 22 21 21 21 20 19 19 19 19 21 23 24 20 18 18 19 21 24 25 24 24 23 24 24 23 21 18 17 16 16 18 20 20 20 18 17 18 19 21 22 22 23 23 23 23 23
30 31 29 27 27 27 28 29 28 27 28 30 30 29 29 29 28 27 26 27 27 27 27 26 26 25 24 25 26 26 26 26 26 27 26 25 24 23 22 20 19 19 19 19 19 18 19 20 20 22 24 23 21 20 20 19 20 22 23 23 23 23 24 23 22 20 14 11 14 16 18 19 19 19 19 19 19 20 22 23 24 24 24 23 22 21
31 31 31 30 30 30 31 32 31 28 29 32 34 33 33 32 30 28 28 29 28 28 27 26 27 26 24 24 26 25 26 27 27 27 28 26 22 17 16 15 16 17 18 19 19 19 20 21 22 23 24 23 23 23 21 19 19 19 21 22 21 21 22 21 19 19 15 12 16 19 20 20 20 20 20 19 19 20 21 23 23 24 25 25 23 20
32 32 32 31 32 33 34 34 34 31 30 33 36 37 36 36 34 31 29 29 29 30 30 29 29 29 27 26 26 25 24 24 25 24 24 24 20 17 16 16 17 18 20 20 19 18 18 20 22 23 23 21 21 20 19 18 19 19 18 18 18 18 21 20 18 19 18 16 17 20 22 22 21 21 20 19 19 20 21 22 23 24 24 23 21 19
33 34 33 33 33 35 37 36 35 33 32 33 36 38 38 38 37 35 32 31 31 32 32 31 31 31 29 29 28 26 24 22 20 20 21 20 18 17 17 17 19 20 21 21 20 19 19 19 20 22 21 20 20 19 17 15 17 18 17 18 19 19 20 20 19 19 19 18 19 20 21 19 18 19 19 19 19 19 20 22 24 24 24 22 20 20
32 33 33 33 34 35 37 38 37 35 34 33 34 37 39 38 38 37 35 34 33 33 32 32 32 30 29 30 30 29 26 23 20 20 21 19 17 17 17 17 16 16 17 18 18 18 18 18 20 21 21 20 20 19 17 17 18 19 19 19 19 18 18 18 18 17 17 17 19 21 20 17 15 15 15 17 19 18 19 22 23 22 22 22 21 22
31 32 33 33 34 35 37 39 39 38 37 36 35 36 39 39 38 38 37 36 35 33 32 32 32 31 28 28 28 27 26 24 22 21 21 19 18 18 17 14 12 13 16 17 16 16 15 15 18 20 20 19 17 15 15 17 18 18 19 19 17 16 16 16 15 15 14 15 17 18 18 17 15 14 15 18 18 17 19 21 21 20 21 22 23 23
31 31 32 32 33 36 39 40 40 39 39 39 38 38 39 40 40 38 38 38 36 34 33 31 31 31 30 28 26 24 23 23 22 21 20 20 20 20 18 17 17 19 19 17 16 15 15 15 15 16 17 16 15 15 15 17 17 17 17 17 17 16 16 15 14 14 13 14 14 14 15 15 15 15 17 17 15 15 17 18 18 18 20 22 26 25
28 29 30 31 30 32 36 38 40 41 40 40 39 39 39 40 40 40 39 38 37 35 34 32 30 30 30 30 29 26 24 23 23 23 23 23 21 19 17 17 18 18 16 15 15 16 15 13 13 13 14 15 14 15 16 16 16 16 16 16 16 16 16 15 14 13 13 13 13 14 15 15 15 16 16 15 13 15 16 16 17 17 18 19 22 23
22 24 26 28 29 29 31 33 37 40 42 42 41 39 39 38 38 38 39 39 39 37 35 32 30 30 29 30 30 29 29 29 27 27 27 26 23 21 21 21 20 18 16 15 16 17 17 17 16 14 14 14 14 15 15 15 14 15 16 16 16 16 16 15 14 13 12 12 13 14 15 15 15 14 14 14 14 15 16 17 17 17 15 14 14 16
19 20 21 24 27 28 28 29 31 33 37 41 40 38 37 35 34 33 33 35 37 37 36 34 32 31 30 29 28 28 29 28 27 27 26 23 22 21 20 19 20 20 18 17 17 18 19 21 20 17 15 16 17 16 16 16 16 16 16 16 15 16 16 16 15 14 14 13 13 14 14 14 14 15 15 14 13 13 14 14 15 14 12 11 11 12
17 17 18 20 23 23 22 25 28 28 29 33 36 36 34 33 32 31 31 31 32 33 34 35 36 36 33 30 29 29 29 29 27 26 24 22 22 21 18 16 17 17 17 16 17 18 20 22 21 16 14 15 17 16 15 16 17 17 17 17 17 17 17 17 17 17 16 16 15 15 15 16 16 17 16 15 14 14 13 14 14 13 12 12 12 13
17 16 16 17 20 22 22 22 23 23 24 28 32 33 32 30 29 30 30 29 29 30 31 33 34 37 37 36 34 32 32 32 31 28 26 25 25 25 23 20 18 17 16 16 16 17 19 20 19 16 14 15 16 16 15 16 17 18 18 18 19 20 20 21 21 20 19 18 18 18 18 18 18 18 19 18 18 17 16 15 15 15 16 17 18 18
19 18 17 16 16 20 23 22 19 18 19 21 24 27 29 29 29 28 28 28 28 28 29 28 28 30 35 37 37 35 35 34 32 29 29 28 25 22 22 22 20 19 18 18 18 19 19 19 19 19 19 19 20 20 20 20 21 21 21 21 22 23 23 23 23 23 23 22 22 21 21 21 21 21 22 22 21 20 19 19 19 19 20 21 22 22
23 22 22 19 15 15 19 22 21 18 16 15 16 20 23 24 25 26 26 26 27 27 26 24 21 21 24 30 33 34 34 31 27 24 25 26 25 23 23 23 23 22 21 20 20 20 20 21 20 22 23 24 25 26 27 26 26 26 25 25 25 25 25 25 25 26 26 26 26 25 24 24 24 24 24 24 24 23 22 22 22 23 23 24 24 24
33 31 30 29 24 19 17 18 19 17 16 15 15 16 19 20 21 23 23 24 25 26 26 25 23 21 21 25 28 28 28 27 25 24 25 26 27 27 26 25 25 25 24 23 22 21 20 19 19 20 23 25 27 28 29 29 28 28 28 27 26 27 27 27 28 29 30 29 28 28 27 27 26 27 27 27 27 25 25 25 25 26 27 27 28 29
35 34 33 34 34 31 27 24 22 19 17 17 15 14 16 19 21 22 23 24 25 26 26 27 28 27 27 29 30 30 30 30 29 29 30 29 29 29 28 27 27 27 26 25 25 24 23 24 24 23 24 25 25 24 26 27 27 27 27 26 27 28 29 30 30 31 31 31 30 30 30 30 29 29 29 28 28 27 27 28 28 29 29 28 29 30
30 30 30 31 32 32 32 30 29 26 23 21 18 15 14 17 20 22 23 25 26 27 27 27 28 29 30 31 32 33 34 34 33 33 34 33 31 30 29 28 28 28 28 27 28 27 25 26 29 29 30 29 24 21 24 26 25 25 25 25 25 27 28 29 31 32 32 32 33 33 33 33 32 32 30 30 30 30 31 31 31 30 30 28 27 25
27 27 27 26 26 27 27 27 28 28 27 25 24 21 18 18 18 19 21 23 24 25 26 26 27 28 28 29 29 29 31 32 32 33 34 33 31 30 30 30 30 30 31 31 31 31 29 29 30 30 29 28 25 25 26 24 22 23 23 23 23 23 23 24 27 30 32 34 35 35 35 35 35 34 34 34 34 34 34 33 33 33 32 33 33 33
26 26 25 25 25 25 25 25 26 25 25 26 26 26 25 23 20 18 19 20 21 22 24 25 26 25 25 25 25 24 24 25 25 25 25 26 27 29 31 32 33 33 33 34 35 35 36 37 37 36 35 34 32 32 31 29 28 28 29 30 31 31 31 30 30 31 32 33 35 36 36 36 36 36 36 37 37 37 37 36 35 35 35 37 39 41
24 24 24 23 23 23 24 26 26 26 25 26 27 27 27 27 25 22 20 19 18 19 20 21 22 22 21 22 23 23 23 22 21 21 22 25 29 32 35 36 36 36 35 35 36 37 38 39 41 42 43 43 42 42 42 42 42 41 40 39 40 41 41 40 40 39 39 38 38 38 38 39 39 40 41 41 42 42 42 41 39 38 38 39 40 41
22 22 23 22 22 22 22 23 24 24 25 25 27 27 27 26 25 23 20 18 16 17 18 18 19 19 19 20 21 21 22 22 22 21 23 26 29 31 33 34 35 35 35 35 36 37 39 40 41 43 44 45 46 46 47 48 48 47 46 44 43 43 43 44 44 45 45 46 46 45 45 46 46 46 45 46 46 46 45 44 42 41 40 40 39 39
22 20 20 21 23 23 22 21 21 21 22 23 25 25 26 26 26 26 25 22 18 16 17 17 17 18 19 19 19 20 22 23 24 24 24 25 26 26 26 27 27 28 29 30 31 33 34 36 38 40 42 44 45 46 46 46 45 45 44 43 41 41 41 42 43 43 44 45 47 47 48 49 49 48 47 46 46 46 46 46 45 43 43 43 43 42
23 21 19 19 21 22 21 20 20 20 21 22 23 24 24 25 26 27 29 28 25 21 20 20 19 19 20 21 20 21 23 24 25 25 25 24 24 24 24 24 25 25 26 27 28 29 30 32 33 34 36 38 40 41 41 41 40 40 39 39 39 38 39 40 41 42 42 43 44 45 46 47 48 48 48 48 48 48 48 49 49 50 50 50 51 50
23 23 21 20 20 20 20 19 19 19 21 22 22 23 23 24 25 25 27 28 27 26 25 24 23 24 25 25 25 25 27 29 29 29 28 27 27 26 25 26 26 27 27 28 29 30 32 32 33 33 34 35 36 37 38 38 39 39 39 40 40 40 40 41 42 43 44 45 45 46 47 48 49 49 50 51 51 51 52 52 53 54 54 53 53 54
21 21 21 20 19 19 20 20 20 20 20 21 21 22 22 23 24 24 25 25 26 27 26 23 22 23 24 26 27 28 31 33 33 32 31 30 29 28 28 28 29 30 31 32 33 34 34 34 34 35 35 36 37 37 38 39 40 41 41 42 43 43 44 44 45 46 47 48 49 49 50 51 51 52 53 53 53 54 54 55 56 55 52 49 49 49
21 21 21 20 20 20 20 20 20 21 21 21 21 22 22 22 23 23 23 24 25 26 25 24 24 24 24 25 27 29 32 33 34 34 35 35 34 33 32 32 32 33 34 35 36 37 37 37 37 38 39 40 41 41 42 42 43 44 45 45 46 47 48 48 48 49 49 50 51 51 52 53 53 54 55 55 55 55 56 56 57 57 55 54 53 51
18 19 20 19 19 19 19 20 21 22 22 23 23 23 24 24 24 25 25 25 25 26 26 26 27 27 27 27 28 31 33 34 35 36 37 38 38 37 37 36 36 36 37 38 38 39 40 40 41 42 42 43 44 44 45 46 46 47 48 48 49 49 50 50 50 50 51 51 52 52 53 54 55 55 56 56 56 56 57 56 56 56 57 58 57 57
15 16 18 17 17 17 17 18 20 21 22 24 24 25 25 26 26 27 27 28 28 29 29 30 30 30 31 31 32 34 35 36 37 38 39 39 40 40 40 41 41 41 41 42 42 43 43 44 45 46 46 47 47 47 48 48 48 49 50 50 51 51 52 52 52 53 53 53 54 54 55 56 56 57 57 58 58 58 58 57 56 55 56 56 56 56
15 15 16 16 17 16 16 17 17 18 19 21 22 23 24 25 26 27 28 28 29 30 31 32 33 34 35 36 37 38 39 40 41 41 42 43 44 44 44 45 45 46 46 46 46 46 47 47 47 48 48 48 49 49 49 50 50 50 50 50 50 51 52 53 53 54 55 55 56 56 57 58 58 59 59 59 59 59 59 59 58 58 59 58 57 56
15 14 15 15 16 16 16 17 17 17 17 18 19 20 21 22 23 24 25 26 28 28 29 30 31 32 33 34 35 36 38 39 40 41 43 44 45 45 44 44 44 44 45 46 46 46 46 46 45 44 44 44 44 45 45 45 46 46 46 46 46 47 48 48 49 50 51 52 53 54 55 56 57 58 58 59 59 59 59 59 59 59 59 60 60 59
Wind_Direction
244 243 243 245 248 248 247 247 244 238 233 229 226 230 236 238 236 227 214 207 211 219 219 215 210 192 175 191 202 209 216 219 223 232 237 238 239 243 245 246 256 270 282 290 275 256 258 272 281 280 276 277 280 282 285 287 289 294 294 290 287 288 293 293 288 281 280 281 276 270 264 250 238 239 243 245 241 233 233 232 223 226 240 252 254 240
244 243 242 243 243 242 242 242 238 233 230 227 226 231 237 234 222 208 199 193 202 216 210 200 193 174 165 183 198 200 207 216 224 233 239 242 244 246 247 249 260 270 277 286 280 263 269 283 288 285 282 285 287 285 284 286 286 289 292 289 286 286 287 287 287 284 280 278 272 262 255 246 238 244 249 248 243 233 227 225 231 241 246 243 227 204
245 243 240 239 238 237 238 238 235 232 229 229 234 236 237 227 206 190 188 188 202 215 200 189 194 179 178 197 198 196 203 212 223 233 239 245 251 253 252 254 259 265 272 280 280 282 289 290 289 287 287 290 290 287 285 282 280 284 288 288 286 286 284 282 283 281 276 271 265 257 251 241 235 247 261 260 249 232 222 225 237 241 234 227 214 205
245 239 236 236 236 235 233 232 233 233 231 234 239 241 234 211 192 178 181 190 206 216 200 190 204 202 204 215 205 197 201 209 220 232 238 245 253 255 255 256 257 259 267 276 283 293 296 291 290 290 291 291 290 287 285 282 281 282 285 287 289 289 283 275 272 271 269 264 259 258 251 238 236 255 274 272 253 232 224 230 239 239 232 227 227 239
239 237 237 237 236 234 229 229 231 231 233 234 238 240 217 192 181 175 187 198 204 210 199 197 212 213 213 220 216 206 205 209 221 235 240 243 245 246 249 251 252 256 265 276 285 292 290 289 291 290 289 289 287 284 283 284 283 279 280 283 286 287 279 266 261 262 262 255 249 251 242 228 233 255 268 267 253 234 230 236 241 243 244 244 267 288
235 234 235 236 236 233 228 225 225 225 229 232 234 224 197 186 177 174 180 180 175 175 182 198 210 208 210 221 224 218 213 217 226 237 242 243 241 241 244 247 250 257 267 276 282 283 284 288 288 286 283 282 282 282 282 282 277 271 272 275 279 281 272 258 252 256 262 250 237 230 219 216 230 248 258 263 255 236 230 230 228 227 246 300 325 311
231 232 229 229 233 232 229 224 219 219 222 224 225 206 192 187 177 171 170 167 164 159 169 191 203 203 209 218 223 222 221 223 228 233 238 242 243 245 248 250 254 261 268 276 280 279 283 287 287 285 282 281 282 281 281 280 271 262 258 262 273 274 268 259 245 247 252 232 217 212 206 213 232 244 254 256 250 239 228 220 207 188 164 340 321 311
223 228 226 225 228 232 233 228 222 220 217 213 212 205 199 193 182 177 179 178 180 179 178 186 196 200 205 210 217 227 234 236 236 237 240 243 245 248 253 256 260 266 271 277 279 278 281 285 286 287 286 283 282 281 281 276 266 258 251 249 263 276 270 258 238 236 229 198 195 205 209 217 229 240 247 245 245 237 220 211 206 205 230 326 318 311
217 218 218 222 225 229 234 232 226 220 213 206 204 204 202 198 189 189 194 193 196 199 195 194 197 200 204 212 223 236 242 243 242 240 241 243 244 247 252 257 263 269 273 276 278 278 278 280 283 286 285 283 283 283 282 274 265 259 251 241 242 278 281 252 226 227 224 207 209 218 218 220 226 232 235 236 241 231 213 209 214 224 249 295 307 304
217 214 212 217 221 225 231 230 221 212 207 202 203 202 201 201 198 198 203 204 206 208 210 211 210 209 214 223 230 236 241 243 241 236 234 236 240 243 248 255 262 268 272 276 277 274 272 274 279 280 278 279 283 285 279 272 266 261 253 243 240 251 260 242 218 226 220 208 207 208 209 216 218 220 220 222 226 218 212 216 225 238 255 276 287 286
217 217 218 219 220 221 225 222 214 210 205 203 206 203 200 202 204 205 207 208 210 211 213 219 223 224 225 230 234 237 240 241 237 232 232 234 237 241 246 253 261 267 273 276 273 269 269 272 272 271 273 277 280 277 269 264 262 258 253 244 239 242 246 247 255 253 217 197 194 189 192 200 203 206 209 213 216 214 216 224 235 245 256 266 270 271
217 219 222 222 221 219 219 221 221 217 210 207 206 204 202 203 205 208 210 212 215 218 218 219 225 231 231 228 229 234 236 233 230 230 231 234 236 238 243 251 258 264 272 274 270 269 270 270 267 267 273 276 273 266 258 252 250 246 238 229 227 232 239 244 246 244 222 201 198 196 200 204 203 204 209 217 224 227 229 235 243 249 253 256 254 261
220 221 221 222 225 225 223 223 223 219 214 213 208 204 203 205 206 209 214 218 221 224 226 224 225 231 236 231 221 223 228 227 227 228 229 232 235 240 247 252 254 259 267 268 267 269 270 269 267 267 271 270 265 258 250 244 238 232 224 220 223 228 234 238 235 229 218 208 206 206 210 211 209 212 217 223 228 231 235 243 250 252 249 244 243 259
221 223 225 224 225 226 219 208 208 212 217 218 212 207 206 206 208 210 215 221 224 226 229 230 231 234 238 237 225 220 224 226 230 234 235 236 240 248 256 255 253 260 267 264 265 269 270 268 265 262 262 259 255 250 244 238 232 226 223 222 225 231 236 238 235 230 224 220 217 217 219 218 217 220 223 225 227 229 235 246 252 248 238 235 247 266
218 221 227 231 229 225 220 211 208 210 217 222 218 213 210 208 210 213 215 220 224 227 230 232 234 237 238 237 231 226 225 227 232 237 238 239 240 246 251 252 252 254 258 265 270 272 270 265 259 256 255 250 244 241 237 232 228 226 226 227 231 237 241 243 241 238 235 231 227 225 225 224 224 227 228 228 227 228 236 244 245 239 236 245 261 270
217 217 222 232 233 226 226 232 227 217 218 227 229 222 215 213 215 216 218 220 222 224 228 230 233 237 240 240 235 229 227 231 237 240 242 244 246 246 249 255 257 250 252 266 268 264 265 261 251 248 251 250 246 241 235 231 228 229 231 234 238 242 245 247 245 241 239 236 233 231 228 224 224 228 230 230 230 231 237 240 238 238 245 257 266 270
221 216 214 222 229 225 220 222 225 223 221 227 232 226 218 218 220 218 219 223 223 220 220 224 229 233 238 239 235 230 229 234 240 246 251 253 252 250 253 261 263 252 252 264 259 252 255 256 249 244 248 255 257 250 241 235 234 238 240 240 240 242 244 245 242 239 234 231 229 229 228 225 225 227 227 231 233 234 237 239 239 242 250 259 266 270
223 220 215 217 223 225 221 216 217 221 220 219 224 222 215 217 221 219 220 225 227 223 218 220 225 231 235 236 235 232 232 236 240 245 250 252 252 251 251 255 255 246 247 252 248 245 249 253 253 251 252 256 260 256 248 244 243 245 245 242 240 239 239 239 238 234 229 225 222 223 223 223 224 225 226 228 230 232 236 238 240 244 250 258 265 269
221 221 220 219 221 223 226 225 220 220 218 213 218 221 216 213 217 220 222 225 228 228 225 224 226 231 234 236 236 237 238 240 240 239 242 246 248 247 245 246 246 241 240 241 241 243 248 250 252 254 256 258 257 250 247 251 250 245 242 241 238 234 234 234 234 232 227 221 220 222 223 222 223 225 229 234 235 235 236 238 240 245 251 257 261 265
220 218 217 218 221 220 223 229 226 224 221 215 218 223 218 212 214 219 223 226 228 230 230 231 233 235 236 238 239 241 243 241 236 235 235 235 237 239 242 243 241 237 235 236 238 242 244 245 247 250 252 254 251 242 241 251 253 249 245 239 232 228 229 230 229 230 226 220 218 221 225 227 228 231 234 237 240 241 241 242 244 247 252 256 259 261
221 219 213 213 219 219 220 228 230 226 223 218 221 225 221 217 217 219 222 225 227 230 232 233 236 238 241 242 241 242 243 242 242 242 237 228 228 231 235 238 237 235 236 236 236 237 238 242 247 251 252 250 242 235 243 252 253 251 248 239 232 229 230 231 230 228 225 224 223 224 232 236 237 238 238 238 240 242 244 245 246 248 252 257 261 264
221 221 215 210 215 220 222 227 229 227 223 219 220 225 225 223 223 223 225 227 227 230 232 233 237 241 244 245 243 241 241 246 250 250 246 239 233 231 232 235 237 238 240 241 241 240 241 243 246 248 247 242 234 238 248 255 255 250 241 234 233 232 232 237 236 227 223 233 237 234 238 242 242 242 242 243 245 246 248 249 247 247 248 251 258 265
223 223 220 212 213 221 225 227 228 228 226 222 219 221 225 226 224 224 228 230 230 231 233 234 237 240 242 245 247 245 244 246 249 255 254 245 235 231 236 246 253 253 253 254 255 255 253 251 248 245 243 241 240 244 248 250 248 241 231 229 230 230 230 233 235 228 223 230 233 232 234 235 238 240 240 243 247 249 254 257 256 254 252 250 252 257
225 225 224 216 213 220 227 230 230 228 228 226 220 218 222 225 227 227 230 233 233 233 234 235 239 241 243 248 251 251 247 243 245 250 246 233 226 230 240 252 260 260 259 257 257 256 254 255 254 249 246 246 245 246 246 243 234 226 226 231 231 231 231 230 231 229 225 227 231 232 232 231 236 242 245 249 252 254 260 264 265 264 261 257 254 254
227 227 226 219 214 219 226 232 234 231 230 230 224 219 219 223 227 230 232 234 235 235 235 236 239 243 245 247 249 248 244 243 247 245 234 228 234 242 251 261 262 258 259 259 259 259 254 252 252 249 248 248 247 245 240 230 222 220 228 234 231 231 231 229 229 228 228 235 239 238 237 236 241 246 251 256 258 260 265 269 273 272 267 263 253 252
231 229 227 225 221 220 224 230 234 233 231 231 230 225 221 222 225 228 232 236 239 240 240 240 241 243 246 247 245 243 242 246 252 248 241 242 252 259 266 269 261 255 259 264 269 268 258 248 245 246 248 248 249 248 238 226 225 226 227 229 227 226 226 227 229 231 235 242 244 244 244 245 248 253 258 261 259 263 270 276 281 280 276 269 253 252
233 230 230 232 229 223 222 226 232 235 234 233 232 230 227 224 224 225 229 233 238 241 242 243 242 243 245 245 241 240 241 245 249 250 248 252 261 269 272 266 258 262 270 274 275 272 265 256 248 246 245 243 244 246 239 232 230 225 221 224 226 226 227 228 229 232 236 239 242 245 247 250 253 257 262 263 260 265 275 280 282 279 277 271 256 258
235 234 233 235 234 229 225 225 229 234 236 236 234 233 232 229 226 226 227 230 234 237 240 242 242 242 243 244 243 244 245 246 248 248 251 259 264 265 264 262 264 269 272 273 270 268 267 261 248 240 236 235 235 235 229 225 224 220 221 225 226 227 227 224 220 221 225 229 234 239 243 247 250 251 256 262 264 272 280 282 280 280 280 269 255 257
237 238 237 238 238 236 233 231 231 233 236 236 234 233 233 233 230 227 227 230 231 232 234 237 240 241 243 247 252 256 254 252 252 253 258 265 264 258 257 262 264 264 264 266 265 266 263 249 235 231 228 226 229 230 226 222 220 218 217 219 222 225 226 223 219 215 216 223 232 238 241 247 251 253 257 261 265 274 280 281 281 285 287 275 257 254
237 237 237 238 237 237 238 236 234 233 233 231 230 232 233 236 235 229 228 230 232 231 232 235 238 240 243 248 254 259 259 259 260 261 263 264 260 259 262 262 261 259 258 259 259 262 256 241 232 232 231 229 226 220 217 218 217 216 218 222 225 226 226 227 227 224 222 227 236 243 245 247 250 251 252 255 261 270 277 279 282 285 287 283 269 262
233 233 234 236 235 236 237 234 230 230 230 227 227 231 233 236 238 235 233 235 235 234 235 238 241 243 244 248 252 256 258 260 261 260 261 258 257 262 264 258 256 258 259 257 256 255 252 245 241 242 241 236 228 216 210 210 210 212 218 224 227 228 231 234 234 233 232 236 240 241 240 241 244 246 248 253 261 270 273 274 277 284 287 284 279 277
227 228 228 231 234 235 233 230 229 231 230 227 227 231 235 237 240 241 241 241 240 239 238 241 245 247 247 247 250 253 255 257 257 256 255 255 256 261 261 255 254 257 259 257 251 247 246 245 247 248 242 229 221 219 221 221 218 217 220 223 226 229 232 234 236 238 239 240 240 239 240 244 249 251 251 254 262 270 274 271 272 278 283 280 277 279
219 219 222 226 227 225 221 222 228 231 230 228 228 229 232 235 237 240 242 243 244 244 244 246 248 248 247 246 247 250 252 255 256 255 256 257 256 256 258 259 258 255 256 256 248 242 240 239 239 241 240 230 220 221 229 234 236 235 234 233 234 234 233 232 234 236 238 239 241 244 250 254 257 256 254 256 263 268 269 269 271 274 277 276 274 272
215 217 223 226 221 219 220 221 225 227 226 228 229 228 231 234 236 239 241 242 243 244 245 248 250 249 246 244 245 248 251 253 254 252 252 253 251 252 257 262 262 258 257 256 250 245 241 238 238 242 246 244 238 235 239 243 244 242 241 241 242 242 240 238 236 237 237 239 241 246 251 256 258 257 257 260 263 264 264 265 266 268 270 272 270 267
231 232 236 238 228 219 219 220 225 229 229 231 232 230 231 234 235 237 237 237 238 239 240 240 239 242 243 241 242 244 243 245 244 240 240 244 249 256 262 263 261 259 259 259 256 253 248 244 247 252 253 251 248 248 249 249 248 246 244 245 245 244 244 243 242 242 243 244 247 250 253 255 254 253 255 258 259 259 259 261 262 263 265 265 263 259
246 247 248 248 245 240 234 231 234 236 235 237 237 233 232 234 235 236 236 234 234 234 236 233 228 230 235 238 239 237 233 235 240 241 242 245 251 258 263 262 258 256 257 258 256 254 251 251 259 266 263 257 253 251 250 250 250 250 248 247 244 243 243 243 244 244 246 248 251 255 256 256 255 253 251 250 251 253 256 258 259 259 259 259 258 257
248 249 250 250 249 250 251 252 251 249 244 242 241 240 240 238 236 237 237 237 235 234 234 234 235 237 240 244 246 245 242 242 246 249 251 253 255 258 261 261 258 256 254 252 251 251 254 260 263 258 249 246 248 250 252 252 251 249 248 246 244 243 243 244 245 246 248 250 252 253 253 253 254 253 251 248 249 254 260 261 259 257 255 256 259 261
245 248 249 250 250 251 254 255 255 254 252 248 243 239 241 241 238 237 238 238 238 238 238 238 240 243 245 248 251 252 252 251 250 251 253 257 259 260 259 259 258 255 252 248 247 247 250 255 255 244 232 230 233 238 244 248 248 248 248 248 247 247 247 247 248 249 250 251 251 251 251 251 251 250 248 249 252 256 258 258 258 257 255 253 252 251
242 245 247 248 249 250 250 252 253 252 249 247 241 234 234 239 239 237 237 238 239 241 242 242 242 244 247 251 256 258 259 258 257 257 258 260 261 260 257 256 256 255 253 250 248 246 243 244 247 244 239 236 233 231 234 237 239 242 246 248 249 250 252 252 253 252 251 251 252 252 252 252 251 251 251 253 255 255 255 254 253 253 250 247 243 238
239 241 244 246 248 249 248 249 251 248 243 241 238 234 232 235 238 240 241 243 243 243 244 244 244 246 247 250 255 259 260 260 260 258 257 255 254 253 252 251 251 251 251 250 249 248 246 245 246 247 248 248 245 243 242 245 248 251 254 256 258 260 260 259 258 258 257 256 256 256 254 253 254 255 258 261 261 259 256 254 253 251 248 246 244 242
240 240 241 242 245 247 246 246 247 245 240 237 237 238 238 239 243 249 251 252 251 248 245 245 246 248 247 247 249 252 255 257 255 249 243 240 240 244 248 249 249 248 248 248 249 249 249 248 248 248 249 250 251 250 251 254 257 260 262 263 263 264 264 262 260 259 258 257 257 257 258 259 260 261 263 266 266 265 263 260 259 257 253 249 246 246
239 241 239 235 234 235 235 238 240 241 239 237 237 240 241 240 242 247 251 252 252 249 245 243 241 240 240 240 242 244 245 245 244 241 239 241 243 246 249 250 250 250 250 250 250 250 250 250 250 250 251 252 253 254 255 257 259 260 262 263 264 265 264 263 261 259 258 257 256 256 257 260 262 263 264 265 266 266 265 264 263 262 261 257 255 253
234 236 234 228 227 229 232 236 238 238 238 238 237 239 241 239 238 239 241 244 246 244 238 234 230 227 228 231 235 236 235 235 236 237 240 245 249 252 254 254 254 254 253 251 250 249 248 248 248 249 250 252 253 255 256 257 258 259 260 261 262 262 263 263 263 262 262 262 262 261 260 260 261 262 263 263 263 263 264 264 264 264 263 263 262 262
231 229 225 220 220 226 231 235 236 236 238 239 239 240 241 241 239 237 238 240 243 243 241 238 236 235 234 234 235 236 235 235 236 238 241 246 250 253 255 256 256 255 254 254 253 253 253 253 252 252 252 253 254 255 257 258 260 261 262 263 263 264 265 265 266 267 267 267 267 267 267 267 266 266 265 265 265 264 265 265 266 266 266 266 266 265
232 231 230 227 224 226 230 233 234 235 237 240 242 243 243 243 242 240 239 240 242 245 249 250 251 251 248 245 241 239 239 240 240 243 247 250 253 254 256 257 258 257 256 256 256 256 257 258 259 260 260 260 260 260 261 262 263 264 265 267 267 268 268 268 269 269 269 269 269 269 269 270 269 269 269 268 267 266 266 265 265 266 266 266 266 266
239 239 239 240 239 236 236 238 239 240 241 242 244 245 245 244 243 242 241 240 241 245 248 248 247 248 250 250 249 247 247 248 249 250 253 255 257 259 260 260 260 260 260 260 261 260 260 261 262 263 264 264 263 263 263 263 264 265 266 266 267 268 268 268 268 268 268 269 269 268 269 269 268 268 268 267 266 266 265 264 264 264 262 261 262 262
250 250 250 250 250 249 247 246 245 246 246 245 245 246 246 245 244 243 242 241 240 240 240 239 239 242 245 248 249 250 253 255 256 257 259 261 263 263 263 262 262 262 263 263 264 265 265 265 266 266 265 265 265 265 266 266 266 267 267 267 268 268 268 268 268 268 267 267 267 267 266 266 266 266 266 265 265 264 264 263 263 263 261 259 258 258
252 253 254 254 253 253 253 252 251 251 252 251 251 251 251 250 250 249 248 248 247 245 243 243 244 245 245 244 245 248 252 256 258 259 261 263 264 265 265 265 265 265 265 266 267 268 268 267 267 267 268 268 269 269 269 269 270 270 270 270 270 270 270 269 269 268 267 267 267 267 266 266 265 265 264 264 264 263 263 262 262 261 261 260 259 258
248 247 248 249 249 249 250 250 250 250 251 252 252 254 254 255 255 255 254 254 254 253 252 251 250 249 248 248 248 250 253 256 258 260 262 264 265 266 267 268 268 268 268 268 268 269 269 269 269 270 271 271 271 271 271 271 271 271 271 271 271 270 270 270 269 269 268 268 267 267 266 266 265 265 264 264 263 263 262 262 260 259 259 259 258 258
256 251 248 248 248 248 248 249 250 251 252 253 253 253 253 253 253 254 254 254 254 254 254 254 253 253 253 254 254 255 256 258 260 261 263 265 267 268 269 270 271 271 271 271 271 271 271 272 272 272 273 273 273 273 273 272 272 272 271 271 270 270 270 270 270 270 270 269 269 268 267 267 266 266 265 265 264 264 263 262 261 260 259 258 257 257
266 264 260 256 253 250 248 248 250 253 255 256 256 256 255 253 252 252 253 254 255 255 255 255 256 256 256 256 256 257 258 259 261 262 264 265 267 268 269 270 270 270 270 271 271 272 273 273 273 273 273 273 273 273 273 274 274 273 273 272 272 272 272 272 272 271 271 271 270 270 269 268 268 267 266 266 265 264 264 263 262 262 261 260 259 258
Height
5724 5725 5727 5730 5732 5732 5732 5734 5735 5736 5736 5736 5737 5738 5740 5742 5744 5746 5746 5747 5747 5746 5748 5752 5754 5757 5760 5761 5763 5764 5765 5766 5765 5763 5762 5764 5766 5767 5768 5771 5774 5777 5778 5780 5780 5781 5782 5782 5782 5781 5781 5780 5781 5781 5781 5781 5783 5784 5786 5787 5787 5786 5787 5787 5787 5786 5786 5785 5785 5785 5786 5787 5789 5790 5791 5791 5792 5793 5794 5794 5795 5795 5795 5796 5796 5796
5722 5724 5726 5728 5728 5728 5729 5731 5732 5733 5733 5734 5735 5737 5738 5741 5743 5743 5744 5744 5744 5743 5746 5749 5751 5754 5757 5759 5760 5761 5762 5763 5762 5761 5761 5763 5764 5765 5767 5770 5773 5775 5776 5778 5779 5780 5780 5780 5779 5779 5779 5779 5779 5779 5779 5779 5781 5782 5784 5785 5785 5784 5784 5784 5784 5783 5783 5782 5783 5783 5784 5786 5787 5788 5789 5790 5790 5791 5792 5792 5793 5793 5794 5794 5795 5795
5720 5723 5724 5725 5725 5726 5727 5728 5729 5730 5731 5732 5733 5734 5736 5739 5741 5741 5742 5742 5742 5742 5745 5748 5749 5751 5754 5756 5758 5759 5759 5761 5760 5759 5760 5761 5762 5764 5767 5769 5771 5773 5774 5776 5777 5778 5778 5777 5777 5777 5778 5779 5778 5778 5777 5777 5778 5780 5781 5782 5782 5782 5781 5781 5781 5780 5780 5780 5780 5781 5782 5784 5785 5786 5787 5787 5788 5789 5790 5790 5791 5792 5792 5793 5793 5793
5719 5720 5721 5721 5722 5724 5725 5726 5727 5728 5729 5730 5731 5733 5735 5738 5738 5739 5740 5740 5741 5742 5745 5746 5747 5749 5751 5753 5755 5755 5756 5758 5758 5758 5758 5759 5761 5763 5766 5768 5770 5771 5772 5774 5775 5776 5776 5775 5775 5775 5776 5777 5776 5776 5776 5776 5776 5777 5778 5779 5780 5779 5779 5778 5778 5778 5778 5778 5778 5778 5780 5782 5783 5784 5784 5785 5786 5786 5787 5788 5789 5790 5790 5791 5791 5791
5716 5717 5718 5719 5720 5722 5722 5724 5725 5727 5728 5729 5730 5732 5734 5735 5736 5737 5738 5739 5740 5742 5743 5744 5744 5746 5749 5751 5752 5752 5754 5755 5755 5755 5756 5758 5760 5762 5764 5766 5767 5769 5771 5772 5774 5774 5774 5773 5773 5774 5774 5774 5774 5773 5773 5773 5774 5774 5775 5776 5777 5777 5776 5776 5775 5775 5775 5776 5777 5777 5778 5780 5780 5781 5782 5783 5784 5785 5785 5786 5787 5788 5788 5788 5789 5789
5713 5714 5716 5717 5718 5720 5720 5722 5723 5725 5726 5727 5729 5731 5732 5733 5734 5735 5736 5737 5738 5739 5740 5742 5743 5744 5747 5749 5750 5751 5753 5753 5753 5753 5754 5756 5758 5760 5762 5764 5766 5768 5769 5770 5772 5772 5771 5771 5772 5772 5772 5772 5771 5771 5771 5771 5771 5772 5773 5774 5774 5774 5774 5774 5773 5773 5773 5773 5774 5775 5775 5777 5778 5779 5781 5782 5782 5784 5785 5785 5786 5786 5786 5786 5786 5787
5711 5712 5714 5715 5716 5718 5719 5720 5721 5722 5724 5726 5728 5730 5730 5731 5732 5733 5735 5735 5736 5737 5737 5740 5742 5743 5746 5748 5748 5749 5751 5751 5752 5752 5753 5755 5756 5759 5761 5762 5764 5765 5766 5768 5769 5769 5769 5769 5770 5770 5770 5770 5769 5769 5769 5768 5769 5770 5771 5772 5772 5772 5772 5772 5771 5771 5771 5771 5771 5772 5773 5774 5776 5777 5779 5780 5781 5783 5784 5784 5784 5784 5784 5784 5785 5785
5709 5711 5712 5713 5714 5716 5717 5718 5719 5720 5722 5724 5726 5728 5729 5729 5730 5731 5733 5734 5734 5735 5736 5737 5740 5742 5744 5746 5746 5747 5748 5749 5751 5752 5753 5754 5755 5757 5759 5760 5761 5763 5764 5765 5766 5766 5766 5767 5768 5768 5767 5767 5767 5767 5767 5767 5767 5768 5769 5770 5770 5770 5770 5769 5769 5769 5769 5769 5770 5770 5771 5772 5774 5776 5777 5779 5780 5781 5781 5782 5782 5782 5782 5782 5783 5783
5707 5709 5710 5711 5712 5713 5715 5716 5718 5719 5720 5722 5724 5725 5726 5727 5728 5729 5731 5732 5733 5734 5735 5736 5737 5740 5743 5744 5744 5745 5745 5746 5748 5750 5752 5753 5754 5755 5756 5757 5759 5760 5762 5763 5763 5763 5764 5765 5766 5765 5765 5764 5764 5765 5765 5765 5766 5766 5767 5768 5768 5769 5768 5766 5766 5767 5767 5768 5768 5769 5770 5771 5772 5774 5775 5777 5778 5778 5779 5779 5780 5780 5780 5781 5781 5782
5705 5706 5707 5708 5710 5711 5713 5715 5716 5717 5719 5720 5721 5722 5724 5725 5726 5728 5729 5731 5731 5732 5734 5735 5736 5738 5741 5742 5742 5742 5742 5744 5746 5748 5750 5751 5752 5753 5754 5756 5757 5758 5760 5760 5761 5761 5761 5763 5764 5763 5763 5762 5762 5763 5763 5763 5764 5764 5765 5766 5766 5767 5767 5765 5765 5766 5765 5766 5767 5768 5769 5769 5770 5772 5773 5774 5775 5776 5777 5777 5778 5778 5779 5779 5780 5781
5703 5704 5704 5705 5707 5709 5711 5713 5714 5715 5717 5718 5719 5721 5722 5723 5724 5726 5728 5729 5730 5730 5732 5734 5735 5737 5739 5740 5740 5740 5740 5741 5743 5745 5747 5749 5750 5751 5753 5755 5755 5756 5757 5758 5758 5758 5759 5761 5762 5761 5761 5760 5760 5760 5761 5761 5762 5762 5762 5763 5764 5765 5765 5763 5763 5765 5765 5765 5765 5766 5767 5767 5769 5770 5771 5772 5773 5774 5775 5775 5776 5777 5777 5778 5779 5779
5700 5701 5702 5704 5705 5707 5708 5710 5712 5713 5715 5716 5717 5719 5721 5722 5723 5725 5726 5727 5728 5729 5731 5732 5733 5735 5736 5738 5738 5738 5738 5740 5742 5744 5746 5747 5748 5749 5751 5752 5753 5754 5755 5755 5755 5755 5757 5759 5760 5759 5758 5758 5758 5758 5759 5759 5759 5759 5760 5760 5761 5762 5763 5762 5762 5763 5763 5764 5764 5765 5765 5766 5767 5768 5769 5770 5771 5772 5772 5773 5774 5775 5775 5776 5777 5778
5698 5699 5701 5702 5704 5705 5707 5709 5711 5712 5713 5714 5715 5717 5718 5720 5722 5723 5724 5725 5726 5728 5729 5731 5732 5733 5734 5736 5737 5737 5737 5738 5740 5741 5742 5743 5745 5747 5748 5749 5750 5752 5753 5753 5753 5754 5755 5757 5757 5757 5756 5755 5756 5757 5757 5757 5757 5758 5758 5758 5759 5760 5760 5760 5761 5762 5762 5763 5763 5763 5764 5765 5766 5766 5767 5768 5769 5769 5770 5771 5771 5772 5773 5774 5775 5776
5696 5698 5699 5700 5702 5704 5706 5708 5709 5711 5712 5713 5713 5714 5716 5717 5719 5720 5722 5723 5724 5726 5727 5729 5731 5730 5731 5734 5735 5736 5736 5737 5738 5739 5740 5741 5743 5745 5746 5746 5748 5749 5750 5751 5751 5752 5753 5755 5755 5754 5753 5753 5754 5755 5755 5755 5755 5756 5756 5757 5757 5758 5759 5760 5760 5761 5761 5761 5761 5761 5762 5763 5764 5764 5765 5765 5766 5767 5767 5768 5768 5769 5770 5771 5772 5773
5694 5695 5697 5699 5701 5703 5705 5707 5708 5709 5710 5711 5712 5713 5714 5715 5717 5719 5720 5721 5723 5724 5725 5727 5728 5727 5728 5731 5733 5734 5734 5735 5736 5737 5738 5739 5741 5743 5743 5744 5746 5748 5748 5749 5749 5750 5751 5752 5752 5752 5751 5751 5752 5753 5753 5753 5753 5754 5755 5755 5756 5757 5758 5759 5760 5760 5760 5760 5759 5759 5760 5760 5761 5761 5762 5763 5763 5764 5765 5765 5766 5767 5768 5769 5769 5770
5691 5693 5696 5698 5700 5701 5703 5705 5706 5707 5708 5709 5710 5711 5712 5714 5715 5717 5718 5719 5721 5722 5723 5724 5725 5725 5726 5728 5730 5731 5732 5733 5734 5734 5735 5737 5738 5740 5741 5742 5744 5746 5746 5747 5747 5748 5748 5749 5749 5749 5749 5749 5749 5750 5750 5751 5752 5753 5754 5755 5756 5756 5757 5758 5758 5758 5757 5757 5757 5757 5757 5758 5758 5759 5760 5760 5761 5762 5763 5763 5764 5765 5766 5766 5767 5768
5689 5691 5694 5696 5697 5699 5701 5703 5704 5705 5706 5707 5708 5709 5710 5712 5713 5715 5716 5717 5718 5720 5721 5721 5722 5722 5724 5726 5728 5730 5731 5731 5732 5733 5733 5734 5735 5737 5739 5740 5742 5743 5744 5745 5745 5746 5746 5747 5747 5747 5747 5747 5747 5748 5749 5750 5751 5753 5754 5755 5755 5755 5755 5755 5755 5755 5754 5754 5754 5755 5755 5756 5756 5757 5757 5758 5759 5760 5761 5761 5762 5763 5763 5764 5765 5765
5686 5689 5692 5694 5695 5697 5698 5699 5701 5702 5703 5705 5706 5706 5708 5709 5710 5711 5713 5714 5715 5717 5718 5718 5719 5720 5721 5723 5725 5728 5729 5730 5731 5732 5732 5732 5732 5734 5736 5737 5739 5740 5742 5743 5743 5743 5744 5744 5744 5744 5744 5745 5746 5746 5748 5749 5750 5752 5754 5754 5754 5753 5753 5752 5751 5751 5751 5751 5751 5752 5752 5753 5754 5754 5755 5756 5756 5757 5758 5759 5760 5760 5761 5762 5762 5763
5683 5686 5689 5691 5693 5694 5695 5696 5697 5698 5699 5701 5703 5703 5705 5706 5707 5709 5710 5711 5713 5714 5715 5716 5717 5717 5718 5721 5723 5725 5727 5728 5729 5730 5729 5729 5730 5731 5732 5734 5735 5737 5739 5740 5740 5741 5741 5742 5742 5742 5742 5743 5743 5745 5747 5748 5749 5751 5752 5752 5751 5750 5749 5749 5749 5748 5748 5748 5749 5749 5750 5750 5751 5752 5752 5753 5754 5755 5756 5756 5757 5758 5758 5759 5760 5760
5681 5684 5686 5688 5690 5691 5692 5693 5694 5696 5697 5698 5699 5700 5702 5703 5704 5706 5707 5709 5711 5712 5713 5715 5715 5716 5717 5719 5721 5722 5724 5725 5725 5725 5725 5724 5725 5727 5729 5730 5732 5733 5735 5736 5737 5738 5739 5739 5739 5739 5739 5739 5740 5742 5745 5746 5747 5748 5747 5747 5746 5746 5745 5745 5744 5745 5745 5745 5747 5748 5749 5749 5749 5749 5750 5750 5751 5752 5753 5754 5755 5755 5756 5756 5756 5757
5678 5680 5684 5686 5687 5688 5689 5689 5691 5693 5695 5695 5696 5697 5699 5701 5702 5703 5705 5706 5708 5709 5711 5712 5713 5714 5715 5717 5718 5719 5720 5720 5721 5721 5722 5721 5721 5723 5726 5727 5729 5730 5731 5732 5734 5735 5736 5736 5736 5736 5736 5736 5738 5740 5742 5743 5743 5743 5743 5743 5742 5742 5741 5741 5742 5744 5746 5747 5749 5750 5749 5749 5748 5748 5748 5748 5748 5749 5750 5751 5752 5753 5753 5753 5754 5754
5675 5677 5680 5684 5685 5685 5685 5685 5688 5691 5692 5693 5694 5695 5697 5698 5700 5701 5702 5703 5705 5707 5708 5710 5710 5712 5713 5714 5715 5717 5718 5718 5719 5719 5720 5721 5721 5722 5724 5726 5727 5728 5729 5730 5731 5733 5733 5732 5732 5733 5733 5733 5735 5738 5739 5739 5739 5739 5739 5738 5737 5738 5740 5742 5744 5746 5749 5750 5750 5749 5749 5748 5748 5747 5747 5747 5748 5748 5748 5748 5749 5750 5751 5751 5752 5752
5672 5674 5677 5680 5682 5682 5681 5682 5684 5688 5690 5691 5691 5693 5694 5695 5697 5699 5700 5701 5703 5705 5706 5708 5708 5709 5711 5711 5713 5715 5716 5716 5716 5717 5717 5719 5721 5722 5723 5724 5725 5726 5727 5728 5730 5731 5731 5730 5730 5731 5731 5731 5733 5734 5736 5737 5737 5736 5735 5734 5735 5738 5740 5742 5744 5745 5747 5748 5747 5746 5745 5745 5745 5745 5746 5747 5747 5747 5747 5747 5747 5748 5748 5749 5749 5750
5670 5671 5673 5677 5679 5679 5678 5679 5681 5684 5687 5688 5688 5690 5691 5692 5694 5696 5697 5699 5700 5702 5703 5705 5705 5706 5708 5709 5710 5713 5714 5714 5714 5714 5715 5716 5719 5720 5721 5722 5723 5723 5724 5725 5726 5728 5729 5729 5729 5729 5729 5730 5731 5732 5733 5734 5734 5734 5734 5734 5736 5737 5738 5740 5741 5742 5742 5743 5742 5740 5740 5740 5742 5743 5744 5745 5746 5746 5746 5746 5746 5746 5747 5747 5747 5748
5666 5667 5669 5672 5675 5676 5676 5676 5678 5681 5683 5685 5686 5687 5688 5690 5692 5694 5695 5696 5697 5698 5700 5701 5702 5703 5705 5706 5707 5710 5712 5712 5712 5712 5713 5714 5715 5716 5718 5719 5719 5719 5720 5720 5722 5723 5725 5726 5726 5726 5727 5728 5729 5730 5731 5732 5731 5732 5732 5733 5734 5735 5735 5737 5738 5739 5740 5740 5739 5738 5738 5740 5742 5743 5743 5744 5744 5744 5744 5744 5743 5744 5744 5745 5745 5746
5661 5663 5666 5668 5670 5672 5673 5673 5674 5677 5680 5681 5683 5685 5686 5687 5689 5691 5693 5694 5694 5696 5697 5698 5699 5700 5702 5703 5705 5707 5709 5710 5711 5711 5711 5712 5713 5714 5715 5716 5715 5715 5716 5717 5718 5720 5721 5722 5723 5723 5724 5725 5726 5727 5728 5729 5729 5729 5730 5730 5731 5732 5733 5734 5735 5737 5738 5738 5737 5737 5738 5739 5740 5740 5741 5741 5741 5742 5742 5741 5741 5741 5742 5742 5743 5743
5658 5660 5663 5664 5667 5669 5670 5670 5671 5673 5675 5677 5680 5682 5684 5684 5685 5687 5689 5690 5692 5693 5694 5695 5696 5698 5699 5699 5701 5704 5706 5707 5708 5709 5709 5710 5711 5712 5713 5714 5714 5713 5714 5715 5716 5717 5718 5719 5720 5721 5722 5723 5723 5725 5726 5727 5727 5728 5728 5728 5729 5730 5731 5732 5734 5735 5736 5735 5735 5736 5736 5737 5738 5738 5738 5739 5739 5740 5740 5739 5739 5739 5739 5740 5740 5740
5655 5657 5659 5661 5663 5664 5665 5667 5668 5669 5671 5673 5676 5679 5680 5681 5682 5684 5686 5687 5689 5690 5692 5693 5694 5695 5696 5697 5699 5702 5704 5705 5706 5707 5708 5708 5709 5710 5711 5712 5712 5712 5712 5713 5713 5714 5716 5717 5718 5719 5720 5721 5722 5723 5724 5725 5726 5727 5727 5727 5727 5728 5729 5730 5732 5733 5733 5733 5733 5734 5734 5735 5736 5736 5736 5736 5736 5737 5737 5737 5737 5737 5737 5737 5737 5737
5652 5654 5656 5658 5660 5661 5662 5663 5664 5665 5667 5669 5672 5674 5676 5677 5678 5680 5682 5684 5686 5687 5688 5689 5691 5693 5694 5695 5696 5698 5701 5702 5704 5705 5706 5706 5706 5707 5708 5709 5709 5710 5710 5711 5711 5712 5713 5715 5716 5717 5718 5719 5720 5721 5722 5722 5723 5725 5726 5726 5726 5727 5727 5728 5729 5730 5731 5731 5731 5731 5732 5733 5733 5734 5735 5735 5735 5735 5735 5735 5735 5734 5734 5733 5733 5734
5651 5652 5654 5655 5657 5658 5658 5659 5661 5662 5663 5665 5667 5669 5672 5674 5675 5676 5679 5681 5683 5684 5685 5686 5688 5689 5691 5692 5693 5695 5697 5698 5700 5702 5703 5704 5704 5704 5705 5706 5706 5707 5708 5709 5709 5710 5711 5712 5714 5715 5716 5717 5718 5718 5719 5720 5721 5722 5723 5724 5724 5725 5725 5725 5726 5727 5728 5728 5729 5729 5730 5731 5732 5733 5733 5734 5734 5734 5734 5734 5733 5732 5732 5731 5731 5732
5649 5650 5652 5653 5654 5655 5656 5656 5657 5658 5659 5661 5663 5666 5668 5670 5672 5673 5676 5678 5680 5682 5683 5684 5685 5686 5689 5690 5691 5692 5693 5694 5696 5698 5699 5700 5701 5701 5702 5702 5702 5704 5705 5706 5707 5707 5708 5709 5710 5712 5713 5714 5714 5715 5716 5717 5717 5718 5719 5720 5722 5723 5723 5723 5723 5724 5725 5725 5726 5727 5728 5730 5731 5731 5732 5732 5732 5732 5732 5731 5731 5730 5730 5730 5730 5730
5646 5648 5649 5650 5650 5652 5654 5654 5655 5656 5657 5658 5660 5663 5664 5666 5668 5670 5673 5675 5677 5679 5681 5682 5683 5685 5686 5688 5688 5690 5690 5691 5692 5694 5695 5697 5698 5698 5698 5699 5700 5701 5702 5703 5704 5705 5705 5706 5707 5708 5709 5710 5711 5712 5712 5713 5714 5715 5716 5718 5719 5720 5721 5722 5722 5723 5724 5724 5725 5726 5727 5728 5729 5729 5729 5729 5729 5729 5729 5729 5728 5728 5728 5728 5728 5729
5644 5645 5647 5648 5648 5649 5651 5652 5653 5653 5654 5655 5657 5659 5661 5663 5665 5667 5669 5672 5674 5676 5678 5680 5681 5682 5683 5684 5685 5687 5687 5688 5689 5691 5693 5694 5695 5695 5696 5696 5697 5699 5700 5701 5702 5702 5703 5704 5705 5705 5706 5707 5708 5709 5710 5711 5711 5712 5714 5716 5717 5718 5719 5720 5721 5722 5723 5723 5723 5724 5725 5726 5727 5727 5727 5727 5727 5727 5727 5726 5726 5726 5727 5727 5727 5727
5641 5643 5644 5645 5646 5646 5648 5650 5650 5651 5651 5652 5654 5657 5658 5660 5662 5664 5666 5669 5671 5673 5674 5675 5677 5678 5679 5680 5682 5683 5684 5685 5685 5687 5689 5691 5691 5692 5693 5695 5695 5697 5698 5699 5700 5700 5701 5702 5702 5703 5704 5704 5705 5706 5707 5708 5708 5710 5711 5713 5714 5716 5717 5718 5719 5719 5720 5720 5721 5721 5722 5723 5724 5724 5724 5724 5724 5724 5724 5724 5724 5724 5725 5725 5725 5725
5639 5641 5641 5642 5644 5644 5645 5647 5647 5648 5649 5651 5652 5654 5655 5657 5659 5661 5663 5665 5667 5669 5670 5672 5674 5674 5675 5676 5678 5680 5681 5681 5682 5684 5685 5686 5688 5689 5691 5692 5694 5694 5695 5696 5697 5697 5698 5699 5700 5700 5701 5701 5702 5702 5703 5704 5705 5706 5708 5710 5711 5712 5714 5714 5715 5715 5716 5717 5717 5717 5718 5719 5719 5720 5721 5721 5720 5720 5721 5721 5721 5721 5722 5722 5722 5722
5636 5638 5639 5640 5641 5642 5643 5645 5645 5646 5648 5650 5650 5651 5653 5654 5656 5658 5660 5662 5664 5665 5667 5669 5670 5671 5672 5672 5673 5675 5677 5678 5679 5680 5681 5683 5684 5685 5687 5689 5690 5691 5693 5694 5694 5694 5695 5696 5697 5698 5698 5698 5698 5699 5699 5700 5701 5702 5703 5705 5706 5708 5709 5710 5710 5711 5711 5712 5713 5713 5714 5714 5715 5715 5716 5716 5716 5716 5717 5717 5717 5718 5718 5719 5719 5718
5633 5635 5636 5637 5638 5640 5641 5642 5643 5645 5647 5647 5648 5649 5650 5651 5653 5655 5656 5658 5660 5661 5663 5665 5667 5668 5669 5670 5670 5672 5674 5675 5676 5677 5678 5679 5681 5682 5683 5685 5686 5688 5690 5692 5692 5691 5692 5693 5693 5694 5694 5694 5695 5696 5696 5696 5697 5697 5698 5699 5701 5702 5703 5704 5705 5705 5706 5707 5708 5708 5709 5709 5709 5710 5711 5712 5712 5713 5713 5713 5714 5714 5714 5715 5716 5716
5630 5631 5633 5634 5635 5637 5638 5639 5641 5642 5644 5645 5646 5647 5648 5648 5650 5652 5653 5654 5656 5658 5660 5661 5663 5664 5665 5667 5667 5668 5670 5672 5673 5674 5675 5675 5677 5678 5679 5680 5682 5684 5685 5687 5688 5688 5689 5689 5688 5688 5689 5689 5691 5692 5692 5692 5693 5693 5693 5694 5695 5696 5697 5698 5699 5700 5700 5701 5701 5702 5703 5703 5704 5705 5706 5707 5708 5709 5709 5709 5710 5710 5710 5712 5713 5713
5627 5628 5629 5630 5632 5634 5635 5636 5637 5638 5640 5642 5644 5645 5645 5645 5647 5648 5650 5651 5653 5655 5656 5658 5659 5660 5662 5663 5663 5664 5665 5667 5669 5670 5670 5671 5672 5674 5675 5676 5678 5679 5680 5682 5683 5684 5686 5686 5685 5686 5686 5686 5687 5688 5687 5687 5689 5689 5690 5691 5692 5693 5693 5694 5694 5695 5695 5696 5696 5697 5697 5698 5699 5700 5701 5701 5702 5703 5704 5705 5705 5705 5706 5707 5707 5707
5624 5625 5626 5628 5629 5631 5632 5633 5634 5635 5637 5639 5640 5641 5642 5643 5644 5645 5646 5648 5651 5652 5653 5654 5655 5657 5659 5660 5660 5660 5661 5662 5664 5665 5666 5667 5667 5668 5669 5671 5673 5674 5675 5676 5678 5680 5681 5682 5683 5683 5683 5684 5684 5685 5684 5684 5685 5686 5686 5687 5688 5689 5690 5690 5691 5691 5691 5692 5692 5692 5693 5694 5695 5696 5696 5696 5697 5697 5698 5699 5699 5700 5701 5701 5701 5700
5620 5622 5624 5625 5627 5628 5629 5630 5630 5631 5633 5635 5637 5638 5639 5640 5641 5642 5644 5646 5647 5649 5650 5651 5653 5654 5656 5656 5657 5658 5658 5659 5660 5660 5661 5661 5662 5663 5664 5666 5667 5669 5670 5672 5673 5674 5675 5676 5677 5679 5679 5680 5680 5680 5681 5681 5681 5681 5682 5682 5683 5683 5684 5686 5686 5687 5687 5688 5688 5688 5688 5689 5689 5690 5691 5691 5691 5691 5692 5693 5694 5694 5694 5695 5695 5695
5617 5619 5621 5623 5624 5625 5626 5626 5627 5628 5630 5632 5633 5634 5636 5637 5638 5639 5641 5642 5643 5644 5646 5648 5649 5651 5652 5653 5654 5654 5655 5655 5655 5655 5655 5655 5657 5658 5660 5662 5663 5665 5666 5667 5669 5669 5670 5670 5671 5672 5673 5674 5675 5675 5676 5676 5677 5677 5677 5677 5677 5677 5678 5679 5680 5680 5681 5682 5683 5684 5684 5684 5684 5684 5684 5684 5685 5685 5686 5687 5687 5687 5688 5688 5689 5689
5615 5617 5618 5619 5621 5622 5622 5623 5625 5626 5627 5628 5630 5631 5632 5634 5635 5636 5637 5639 5640 5641 5642 5643 5645 5647 5648 5649 5650 5651 5651 5651 5651 5651 5652 5652 5653 5655 5657 5659 5660 5661 5662 5663 5663 5664 5664 5664 5665 5666 5667 5669 5669 5669 5670 5670 5671 5671 5672 5672 5672 5672 5673 5673 5673 5674 5674 5674 5675 5676 5677 5677 5677 5678 5678 5679 5679 5679 5679 5680 5681 5681 5681 5681 5682 5683
5612 5614 5616 5616 5617 5618 5619 5621 5622 5623 5624 5625 5626 5628 5629 5630 5632 5633 5634 5636 5638 5639 5639 5640 5641 5642 5644 5645 5646 5647 5647 5647 5648 5649 5650 5651 5651 5653 5654 5656 5657 5658 5658 5658 5659 5659 5659 5659 5661 5662 5663 5663 5664 5664 5664 5664 5665 5665 5665 5666 5666 5667 5667 5668 5668 5668 5668 5668 5668 5668 5668 5669 5669 5670 5670 5671 5673 5673 5674 5674 5675 5674 5674 5675 5675 5676
5610 5611 5612 5613 5614 5615 5616 5618 5619 5621 5622 5623 5623 5624 5626 5627 5628 5629 5631 5633 5634 5635 5636 5637 5637 5638 5639 5640 5641 5642 5642 5643 5645 5646 5647 5648 5649 5650 5652 5653 5653 5653 5654 5654 5654 5654 5654 5655 5656 5657 5658 5658 5658 5659 5659 5659 5659 5660 5660 5660 5660 5661 5661 5662 5662 5662 5662 5662 5662 5662 5662 5661 5661 5662 5662 5663 5664 5666 5667 5668 5667 5667 5667 5667 5667 5668
5607 5608 5609 5609 5611 5612 5613 5615 5616 5618 5619 5620 5620 5621 5622 5623 5624 5626 5627 5629 5630 5632 5633 5633 5634 5634 5634 5635 5636 5636 5637 5638 5640 5641 5643 5644 5646 5647 5648 5649 5648 5649 5649 5648 5648 5648 5649 5651 5652 5653 5653 5652 5652 5653 5653 5653 5654 5654 5654 5654 5654 5654 5654 5655 5655 5655 5655 5655 5655 5655 5655 5654 5654 5654 5655 5655 5656 5657 5658 5659 5659 5659 5659 5659 5659 5660
5603 5604 5605 5606 5607 5609 5610 5612 5613 5614 5615 5616 5617 5618 5619 5620 5621 5623 5624 5625 5626 5627 5628 5629 5630 5630 5631 5632 5632 5633 5633 5634 5635 5636 5637 5638 5640 5642 5643 5643 5643 5644 5644 5643 5643 5643 5645 5646 5646 5646 5645 5645 5646 5646 5647 5647 5647 5647 5647 5647 5647 5647 5647 5647 5647 5647 5647 5646 5646 5647 5647 5646 5646 5646 5646 5647 5648 5648 5649 5649 5649 5650 5650 5651 5652 5653
5599 5601 5602 5603 5604 5605 5607 5608 5610 5611 5611 5612 5614 5614 5615 5616 5618 5619 5621 5621 5622 5623 5624 5625 5626 5627 5627 5628 5629 5629 5629 5630 5631 5631 5632 5632 5633 5634 5635 5636 5637 5638 5638 5638 5638 5638 5638 5639 5639 5638 5638 5639 5640 5640 5640 5640 5640 5640 5640 5640 5640 5640 5639 5639 5639 5639 5638 5638 5638 5638 5638 5637 5637 5637 5637 5638 5639 5639 5638 5639 5640 5639 5640 5641 5642 5643
5597 5598 5599 5599 5601 5602 5603 5604 5605 5606 5607 5608 5609 5610 5611 5612 5613 5614 5615 5616 5617 5617 5619 5620 5621 5622 5623 5623 5624 5625 5625 5625 5626 5627 5627 5627 5627 5628 5629 5629 5630 5631 5631 5631 5631 5631 5631 5631 5632 5632 5631 5632 5632 5632 5632 5632 5632 5632 5632 5632 5631 5631 5631 5630 5630 5630 5629 5629 5629 5629 5629 5628 5628 5628 5628 5629 5630 5630 5629 5630 5630 5629 5629 5630 5632 5633
5593 5595 5596 5596 5597 5599 5600 5601 5601 5602 5603 5604 5605 5606 5607 5608 5608 5609 5609 5610 5611 5612 5613 5614 5615 5616 5617 5617 5618 5619 5619 5619 5620 5621 5622 5621 5621 5622 5622 5622 5622 5623 5623 5623 5623 5623 5623 5624 5625 5625 5624 5624 5624 5624 5624 5624 5624 5624 5624 5623 5622 5622 5622 5621 5621 5620 5620 5619 5619 5619 5619 5618 5618 5619 5619 5619 5620 5621 5621 5620 5620 5619 5619 5620 5622 5623
5590 5592 5593 5593 5594 5596 5597 5598 5599 5600 5600 5600 5601 5601 5602 5603 5603 5604 5604 5605 5605 5606 5607 5608 5609 5610 5611 5611 5611 5612 5612 5612 5613 5615 5615 5615 5616 5616 5616 5615 5615 5615 5615 5615 5615 5616 5616 5617 5617 5617 5617 5616 5616 5616 5615 5615 5615 5615 5615 5614 5614 5613 5613 5613 5612 5612 5611 5610 5609 5609 5608 5608 5608 5608 5609 5609 5610 5611 5611 5610 5610 5609 5609 5609 5612 5613